Regional Weather Roundup
Issued by NWS

Home | Current Version | Previous Version | Text Only | Print | Product List | Glossary On
Versions: 1 2 3 4 5 6 7 8 9 10 11 12 13 14 15 16 17 18 19 20 21 22 23 24 25 26 27 28 29 30 31 32 33 34 35 36 37 38 39 40 41 42 43 44 45 46 47 48 49 50
000
ASUS44 KFWD 240910
RWRTX
NORTH TEXAS HOURLY WEATHER ROUNDUP
NATIONAL WEATHER SERVICE FORT WORTH TX
400 AM CDT SUN SEP 24 2017

NOTE: "FAIR" INDICATES FEW OR NO CLOUDS BELOW 12,000 FEET WITH NO
SIGNIFICANT WEATHER AND/OR OBSTRUCTIONS TO VISIBILITY.

TXZ118-119-241000-
DALLAS/FORT WORTH METROPLEX

CITY           SKY/WX    TMP DP  RH WIND       PRES   REMARKS
DFW AIRPORT    PTCLDY    77  68  73 S8        29.88S
DALLAS LOVE    PTCLDY    77  68  73 S9        29.90R
FTW MEACHAM    CLEAR     77  69  76 SE8       29.88F
DAL-EXECUTIVE  CLEAR     76  68  76 S5        29.90R
FTW-ALLIANCE   CLEAR     75  67  76 S7        29.89S
FTW-NAS-JRB    PTCLDY    77  67  71 S10       29.89S
FTW-SPINKS     CLEAR     74  67  77 SE5       29.91S
ARLINGTON      CLEAR     75  69  81 SE7       29.90R
GRAND PRAIRIE  PTCLDY    76  66  70 S5        29.91S
ADDISON        CLEAR     77  67  72 S9        29.92R
MESQUITE       CLEAR     71  68  90 SE3       29.90S
LANCASTER      CLEAR     71  65  81 CALM      29.91S
$$

TXZ091>094-102>105-117-120-121-131>134-241000-
NORTH CENTRAL TEXAS

CITY           SKY/WX    TMP DP  RH WIND       PRES   REMARKS
SHRMAN/DENISON CLEAR     74  67  77 N8        29.91S
GAINESVILLE    CLEAR     71  66  85 SE3       29.92S
BOWIE          PTCLDY    69  65  87 CALM      29.90S
BRIDGEPORT     PTCLDY    74  65  73 SE7       29.89F
DECATUR        CLEAR     74  65  74 SE8       29.89S
DENTON         CLEAR     73  67  81 SE5       29.89S
MCKINNEY       CLEAR     73  70  90 CALM      29.90S
BONHAM         CLEAR     70  67  90 SE5       29.91S
GREENVILLE     CLEAR     73  70  88 CALM      29.91S
ROCKWALL       CLEAR     74  69  84 S3        29.91R
TERRELL        CLEAR     73  67  81 CALM      29.91R
WAXAHACHIE     CLEAR     72  67  84 SE5       29.92S
CLEBURNE       CLEAR     73  70  88 S7        29.91F
GRANBURY       PTCLDY    75  67  76 E8        29.89F
$$

TXZ083>090-098>101-113>116-127>130-139>142-154-155-241000-
WESTERN NORTH TEXAS

CITY           SKY/WX    TMP DP  RH WIND       PRES   REMARKS
WICHITA FALLS  CLEAR     69  63  81 SE8       29.87S
WF-KICKAPOO    CLOUDY    71  65  81 SE5       29.90S
VERNON         PTCLDY    72  59  62 S6        29.88S
ABILENE        PTCLDY    73  66  78 S16       29.88S
ABILENE-DYESS  PTCLDY    74  66  75 S15       29.86S
GRAHAM         PTCLDY    74  65  74 SE6       29.86S
BRECKENRIDGE   PTCLDY    76  65  69 S9        29.87S
CISCO          CLEAR     73  66  78 S12       29.90S
EASTLAND       CLOUDY    72  66  81 SE9       29.89S
RANGER         CLOUDY    72  66  82 S9        29.90S
MINERAL WELLS  PTCLDY    71  65  81 SE8       29.87F
STEPHENVILLE   PTCLDY    73  67  81 S7        29.92F
COMANCHE       PTCLDY    72  68  88 S8        29.89F
COLEMAN        PTCLDY    73  65  76 S9        29.89S
$$

TXZ143>147-156>162-174-175-241000-
CENTRAL TEXAS

CITY           SKY/WX    TMP DP  RH WIND       PRES   REMARKS
WACO           CLEAR     76  70  82 S9        29.89S
WACO-MCGREGOR  CLEAR     72  68  87 SE7       29.90S
HILLSBORO      CLEAR     75  69  80 S8        29.90S
CORSICANA      CLEAR     72  70  93 S6        29.91S
MEXIA          CLEAR     70  69  94 SE3       29.90S
HEARNE         PTCLDY    69  69 100 CALM      29.91S
CAMERON        CLEAR     72  70  93 SE3       29.89F
TEMPLE         CLEAR     72  70  93 SE8       29.90F
KILLEEN        PTCLDY    71  69  94 SE9       29.88F FOG
FORT HOOD      MOCLDY    71  70  94 S8        29.86F
GATESVILLE     CLEAR     72  70  94 CALM      29.91S
HAMILTON       CLEAR     72  70  93 S8        29.90F
LAMPASAS       CLEAR     73  71  92 S6        29.88F
$$

TXZ095>097-106>112-122>126-135>138-148>153-164>167-241000-
EAST TEXAS

CITY           SKY/WX    TMP DP  RH WIND       PRES   REMARKS
PARIS          CLEAR     70  68  93 SE6       29.93R
SULPHUR SPRNGS CLEAR     71  68  90 SE5       29.93F
MOUNT PLEASANT CLEAR     70  69  97 CALM      29.93R
GILMER         CLEAR     69  68  96 CALM      29.92S
MINEOLA        CLEAR     70  68  94 CALM      29.91S FOG
TYLER          CLEAR     72  72 100 SE6       29.91S
LONGVIEW       CLEAR     71  71 100 CALM      29.91S
MARSHALL       CLEAR     67  65  93 CALM      29.94S
ATHENS         CLEAR     68  68 100 CALM      29.91R
PALESTINE      CLEAR     73  72  94 CALM      29.92S
JACKSONVILLE   CLEAR     73  71  94 S5        29.94S
HENDERSON      CLEAR     69  69  98 CALM      29.93S FOG
CENTER         SUNNY     74  73  96 CALM      29.93S FOG
NACOGDOCHES    CLEAR     70  68  93 CALM      29.92S FOG
LUFKIN         CLEAR     71  71 100 E3        29.91S
$$

SUPPLEMENTAL OBSERVATIONS (NWS FORT WORTH AREA)

CITY           SKY/WX    TMP DP  RH WIND       PRES   REMARKS
CADDO GRASSLND   N/A     72  64  78 SE2         N/A
PAT MAYSE LAKE   N/A     75  72  88 E2          N/A
GREENVILLE       N/A     72  68  88 SE3         N/A
CEDAR HILL       N/A     75  66  73 S7          N/A
LBJ GRASSLAND    N/A     75  64  69 SE8         N/A
MCGREGOR         N/A     72  68  88 S7          N/A
$$

SUPPLEMENTAL OBSERVATIONS (NWS NORMAN AREA)

CITY           SKY/WX    TMP DP  RH WIND       PRES   REMARKS
GOODLETT         N/A     75  61  62 SE13      29.86F
ODELL            N/A     73  63  70 SE12      29.89S
CROWELL          N/A     75  64  68 SE12      29.88S
KNOX CITY        N/A     75  62  62 SE13      29.87S
SEYMOUR          N/A     73  62  67 SE8       29.88S
MILLERS CREEK    N/A     75  64  69 S9G17       N/A
$$

SUPPLEMENTAL OBSERVATIONS (NWS SAN ANGELO AREA)

CITY           SKY/WX    TMP DP  RH WIND       PRES   REMARKS
HASKELL          N/A     74  62  64 SE7       29.87F
THROCKMORTON     N/A     74  66  76 SE5       29.89S
STAMFORD         N/A     76  66  71 SE14      29.88S
CLYDE            N/A     72  66  82 SE10      29.91R
HAMBY            N/A     73  64  73 S13         N/A
IVIE RESERVOIR   N/A     73  66  78 SE12        N/A
COLORADO BEND    N/A     73  66  78 S12         N/A
$$

SUPPLEMENTAL OBSERVATIONS (NWS SHREVEPORT AREA)

CITY           SKY/WX    TMP DP  RH WIND       PRES   REMARKS
TEXARKANA        N/A     66  64  94 CALM        N/A
LINDEN           N/A     70  66  88 CALM        N/A
LUFKIN           N/A     72  70  94 MISG        N/A
N SABINE NF      N/A     70  68  94 MISG        N/A
$$

SUPPLEMENTAL OBSERVATIONS ARE A COLLECTION OF AUTOMATED INSTRUMENTS
THAT ARE MAINTAINED BY A VARIETY OF FEDERAL AND STATE AGENCIES.
CERTAIN ELEMENTS...SUCH AS HUMIDITY VALUES AND SUSTAINED WIND
SPEEDS...MAY BE APPROXIMATED.




USA.gov is the U.S. government's official web portal to all federal, state and local government web resources and services.